owner,sensor,date,latitude,longitude,vertical_datum,wind_speed,wind_to_direction,wind_speed_of_gust,qcFlag 
COMPS,ioos:station:USF.COMPS:FHP:1,2016-08-01T00:00:00Z,28.1530,-82.8010,10.0,1.06,83.95,2.15,'1111122,1111122,1111122' 
COMPS,ioos:station:USF.COMPS:FHP:1,2016-08-01T00:06:00Z,28.1530,-82.8010,10.0,1.3,93.63,2.05,'1111122,1111122,1111122' 
COMPS,ioos:station:USF.COMPS:FHP:1,2016-08-01T00:12:00Z,28.1530,-82.8010,10.0,1.23,85.36,1.76,'1111122,1111122,1111122' 
COMPS,ioos:station:USF.COMPS:FHP:1,2016-08-01T00:18:00Z,28.1530,-82.8010,10.0,0.67,64.48,0.97,'1111122,1111122,1111122' 
COMPS,ioos:station:USF.COMPS:FHP:1,2016-08-01T00:24:00Z,28.1530,-82.8010,10.0,0.7,63.54,0.97,'1111122,1111122,1111122' 
COMPS,ioos:station:USF.COMPS:FHP:1,2016-08-01T00:30:00Z,28.1530,-82.8010,10.0,0.55,67.54,0.88,'1111122,1111122,1111122' 
COMPS,ioos:station:USF.COMPS:FHP:1,2016-08-01T00:36:00Z,28.1530,-82.8010,10.0,0.6,37.45,0.97,'1111122,1111122,1111122' 
COMPS,ioos:station:USF.COMPS:FHP:1,2016-08-01T00:42:00Z,28.1530,-82.8010,10.0,0.11,67.56,0.39,'1111122,1111122,1111122' 
COMPS,ioos:station:USF.COMPS:FHP:1,2016-08-01T00:48:00Z,28.1530,-82.8010,10.0,0.24,106.24,0.58,'1111122,1111122,1111122' 
COMPS,ioos:station:USF.COMPS:FHP:1,2016-08-01T00:54:00Z,28.1530,-82.8010,10.0,0.36,148.42,0.88,'1111122,1111122,1111122' 
COMPS,ioos:station:USF.COMPS:FHP:1,2016-08-01T01:00:00Z,28.1530,-82.8010,10.0,1.61,139.56,2.84,'1111122,1111122,1111122' 
COMPS,ioos:station:USF.COMPS:FHP:1,2016-08-01T01:06:00Z,28.1530,-82.8010,10.0,5.53,153.31,9.6,'1111122,1111122,1111122' 
COMPS,ioos:station:USF.COMPS:FHP:1,2016-08-01T01:12:00Z,28.1530,-82.8010,10.0,7.68,146.35,9.4,'1111122,1111122,1111122' 
COMPS,ioos:station:USF.COMPS:FHP:1,2016-08-01T01:18:00Z,28.1530,-82.8010,10.0,6.08,142.65,8.82,'1111122,1111122,1111122' 
COMPS,ioos:station:USF.COMPS:FHP:1,2016-08-01T01:24:00Z,28.1530,-82.8010,10.0,9.54,150.74,14.01,'1111122,1111122,1111122' 
COMPS,ioos:station:USF.COMPS:FHP:1,2016-08-01T01:30:00Z,28.1530,-82.8010,10.0,11.07,145.42,14.6,'1111122,1111122,1111122' 
COMPS,ioos:station:USF.COMPS:FHP:1,2016-08-01T01:36:00Z,28.1530,-82.8010,10.0,8.42,165.7,11.95,'1111122,1111122,1111122' 
COMPS,ioos:station:USF.COMPS:FHP:1,2016-08-01T01:42:00Z,28.1530,-82.8010,10.0,6.98,200.29,8.91,'1111122,1111122,1111122' 
COMPS,ioos:station:USF.COMPS:FHP:1,2016-08-01T01:48:00Z,28.1530,-82.8010,10.0,6.56,223.31,8.42,'1111122,1111122,1111122' 
COMPS,ioos:station:USF.COMPS:FHP:1,2016-08-01T01:54:00Z,28.1530,-82.8010,10.0,5.88,211.93,6.66,'1111122,1111122,1111122' 
COMPS,ioos:station:USF.COMPS:FHP:1,2016-08-01T02:00:00Z,28.1530,-82.8010,10.0,6.34,164.66,8.62,'1111122,1111122,1111122' 
COMPS,ioos:station:USF.COMPS:FHP:1,2016-08-01T02:06:00Z,28.1530,-82.8010,10.0,6.28,147.25,8.13,'1111122,1111122,1111122' 
COMPS,ioos:station:USF.COMPS:FHP:1,2016-08-01T02:12:00Z,28.1530,-82.8010,10.0,5.77,160.25,7.05,'1111122,1111122,1111122' 
COMPS,ioos:station:USF.COMPS:FHP:1,2016-08-01T02:18:00Z,28.1530,-82.8010,10.0,5.64,157.45,6.76,'1111122,1111122,1111122' 
COMPS,ioos:station:USF.COMPS:FHP:1,2016-08-01T02:24:00Z,28.1530,-82.8010,10.0,5.2,154.42,6.46,'1111122,1111122,1111122' 
COMPS,ioos:station:USF.COMPS:FHP:1,2016-08-01T02:30:00Z,28.1530,-82.8010,10.0,4.44,157.89,5.39,'1111122,1111122,1111122' 
COMPS,ioos:station:USF.COMPS:FHP:1,2016-08-01T02:36:00Z,28.1530,-82.8010,10.0,4.18,170.79,5.58,'1111122,1111122,1111122' 
COMPS,ioos:station:USF.COMPS:FHP:1,2016-08-01T02:42:00Z,28.1530,-82.8010,10.0,2.98,173.85,4.01,'1111122,1111122,1111122' 
COMPS,ioos:station:USF.COMPS:FHP:1,2016-08-01T02:48:00Z,28.1530,-82.8010,10.0,2.65,106.2,4.21,'1111122,1111122,1111122' 
COMPS,ioos:station:USF.COMPS:FHP:1,2016-08-01T02:54:00Z,28.1530,-82.8010,10.0,2.49,62.5,3.62,'1111122,1111122,1111122' 
COMPS,ioos:station:USF.COMPS:FHP:1,2016-08-01T03:00:00Z,28.1530,-82.8010,10.0,1.15,75.52,2.15,'1111122,1111122,1111122' 
COMPS,ioos:station:USF.COMPS:FHP:1,2016-08-01T03:06:00Z,28.1530,-82.8010,10.0,0.34,12.56,0.97,'1111122,1111122,1111122' 
COMPS,ioos:station:USF.COMPS:FHP:1,2016-08-01T03:12:00Z,28.1530,-82.8010,10.0,0.69,303.2,1.27,'1111122,1111122,1111122' 
COMPS,ioos:station:USF.COMPS:FHP:1,2016-08-01T03:18:00Z,28.1530,-82.8010,10.0,0.56,325.98,1.47,'1111122,1111122,1111122' 
COMPS,ioos:station:USF.COMPS:FHP:1,2016-08-01T03:24:00Z,28.1530,-82.8010,10.0,1.55,294.62,3.52,'1111122,1111122,1111122' 
COMPS,ioos:station:USF.COMPS:FHP:1,2016-08-01T03:30:00Z,28.1530,-82.8010,10.0,3.32,256.61,5.09,'1111122,1111122,1111122' 
COMPS,ioos:station:USF.COMPS:FHP:1,2016-08-01T03:36:00Z,28.1530,-82.8010,10.0,3.9,242.44,5.29,'1111122,1111122,1111122' 
COMPS,ioos:station:USF.COMPS:FHP:1,2016-08-01T03:42:00Z,28.1530,-82.8010,10.0,4.39,234.23,5.19,'1111122,1111122,1111122' 
COMPS,ioos:station:USF.COMPS:FHP:1,2016-08-01T03:48:00Z,28.1530,-82.8010,10.0,5.05,226.56,6.76,'1111122,1111122,1111122' 
COMPS,ioos:station:USF.COMPS:FHP:1,2016-08-01T03:54:00Z,28.1530,-82.8010,10.0,5.7,229.71,7.05,'1111122,1111122,1111122' 
COMPS,ioos:station:USF.COMPS:FHP:1,2016-08-01T04:00:00Z,28.1530,-82.8010,10.0,4.94,233.09,5.68,'1111122,1111122,1111122' 
COMPS,ioos:station:USF.COMPS:FHP:1,2016-08-01T04:06:00Z,28.1530,-82.8010,10.0,4.95,234.46,5.78,'1111122,1111122,1111122' 
COMPS,ioos:station:USF.COMPS:FHP:1,2016-08-01T04:12:00Z,28.1530,-82.8010,10.0,5.03,214.17,6.27,'1111122,1111122,1111122' 
COMPS,ioos:station:USF.COMPS:FHP:1,2016-08-01T04:18:00Z,28.1530,-82.8010,10.0,4.69,196.48,6.66,'1111122,1111122,1111122' 
COMPS,ioos:station:USF.COMPS:FHP:1,2016-08-01T04:24:00Z,28.1530,-82.8010,10.0,4.37,142.4,5.29,'1111122,1111122,1111122' 
COMPS,ioos:station:USF.COMPS:FHP:1,2016-08-01T04:30:00Z,28.1530,-82.8010,10.0,4.2,149.41,5.19,'1111122,1111122,1111122' 
COMPS,ioos:station:USF.COMPS:FHP:1,2016-08-01T04:36:00Z,28.1530,-82.8010,10.0,4.3,150.87,5.09,'1111122,1111122,1111122' 
COMPS,ioos:station:USF.COMPS:FHP:1,2016-08-01T04:42:00Z,28.1530,-82.8010,10.0,4.45,154.18,5.29,'1111122,1111122,1111122' 
COMPS,ioos:station:USF.COMPS:FHP:1,2016-08-01T04:48:00Z,28.1530,-82.8010,10.0,4.43,143.35,5.58,'1111122,1111122,1111122' 
COMPS,ioos:station:USF.COMPS:FHP:1,2016-08-01T04:54:00Z,28.1530,-82.8010,10.0,4.41,149.21,5.58,'1111122,1111122,1111122' 
COMPS,ioos:station:USF.COMPS:FHP:1,2016-08-01T05:00:00Z,28.1530,-82.8010,10.0,4.42,144.76,5.39,'1111122,1111122,1111122' 
COMPS,ioos:station:USF.COMPS:FHP:1,2016-08-01T05:06:00Z,28.1530,-82.8010,10.0,4.04,138.67,4.9,'1111122,1111122,1111122' 
COMPS,ioos:station:USF.COMPS:FHP:1,2016-08-01T05:12:00Z,28.1530,-82.8010,10.0,3.77,128.17,4.6,'1111122,1111122,1111122' 
COMPS,ioos:station:USF.COMPS:FHP:1,2016-08-01T05:18:00Z,28.1530,-82.8010,10.0,3.26,149.94,4.21,'1111122,1111122,1111122' 
COMPS,ioos:station:USF.COMPS:FHP:1,2016-08-01T05:24:00Z,28.1530,-82.8010,10.0,3.22,153.67,3.92,'1111122,1111122,1111122' 
COMPS,ioos:station:USF.COMPS:FHP:1,2016-08-01T05:30:00Z,28.1530,-82.8010,10.0,2.86,148.87,3.62,'1111122,1111122,1111122' 
COMPS,ioos:station:USF.COMPS:FHP:1,2016-08-01T05:36:00Z,28.1530,-82.8010,10.0,2.44,142.51,3.23,'1111122,1111122,1111122' 
COMPS,ioos:station:USF.COMPS:FHP:1,2016-08-01T05:42:00Z,28.1530,-82.8010,10.0,2.2,115.62,2.94,'1111122,1111122,1111122' 
COMPS,ioos:station:USF.COMPS:FHP:1,2016-08-01T05:48:00Z,28.1530,-82.8010,10.0,1.65,77.38,2.35,'1111122,1111122,1111122' 
COMPS,ioos:station:USF.COMPS:FHP:1,2016-08-01T05:54:00Z,28.1530,-82.8010,10.0,1.74,75.62,2.64,'1111122,1111122,1111122' 
COMPS,ioos:station:USF.COMPS:FHP:1,2016-08-01T06:00:00Z,28.1530,-82.8010,10.0,2.07,101.9,2.64,'1111122,1111122,1111122' 
COMPS,ioos:station:USF.COMPS:FHP:1,2016-08-01T06:06:00Z,28.1530,-82.8010,10.0,2.1,101.5,2.64,'1111122,1111122,1111122' 
COMPS,ioos:station:USF.COMPS:FHP:1,2016-08-01T06:12:00Z,28.1530,-82.8010,10.0,1.97,91.62,2.64,'1111122,1111122,1111122' 
COMPS,ioos:station:USF.COMPS:FHP:1,2016-08-01T06:18:00Z,28.1530,-82.8010,10.0,2.1,74.26,2.94,'1111122,1111122,1111122' 
COMPS,ioos:station:USF.COMPS:FHP:1,2016-08-01T06:24:00Z,28.1530,-82.8010,10.0,2.74,63.82,3.23,'1111122,1111122,1111122' 
COMPS,ioos:station:USF.COMPS:FHP:1,2016-08-01T06:30:00Z,28.1530,-82.8010,10.0,2.83,76.41,3.33,'1111122,1111122,1111122' 
COMPS,ioos:station:USF.COMPS:FHP:1,2016-08-01T06:36:00Z,28.1530,-82.8010,10.0,2.87,80.5,3.52,'1111122,1111122,1111122' 
COMPS,ioos:station:USF.COMPS:FHP:1,2016-08-01T06:42:00Z,28.1530,-82.8010,10.0,3.48,82.8,4.11,'1111122,1111122,1111122' 
COMPS,ioos:station:USF.COMPS:FHP:1,2016-08-01T06:48:00Z,28.1530,-82.8010,10.0,3.08,80.67,3.72,'1111122,1111122,1111122' 
COMPS,ioos:station:USF.COMPS:FHP:1,2016-08-01T06:54:00Z,28.1530,-82.8010,10.0,3.17,72.08,3.82,'1111122,1111122,1111122' 
COMPS,ioos:station:USF.COMPS:FHP:1,2016-08-01T07:00:00Z,28.1530,-82.8010,10.0,2.85,59.28,3.62,'1111122,1111122,1111122' 
COMPS,ioos:station:USF.COMPS:FHP:1,2016-08-01T07:06:00Z,28.1530,-82.8010,10.0,2.4,46.38,2.94,'1111122,1111122,1111122' 
COMPS,ioos:station:USF.COMPS:FHP:1,2016-08-01T07:12:00Z,28.1530,-82.8010,10.0,2.13,35.55,2.64,'1111122,1111122,1111122' 
COMPS,ioos:station:USF.COMPS:FHP:1,2016-08-01T07:18:00Z,28.1530,-82.8010,10.0,1.71,65.73,2.45,'1111122,1111122,1111122' 
COMPS,ioos:station:USF.COMPS:FHP:1,2016-08-01T07:24:00Z,28.1530,-82.8010,10.0,2.1,93.24,2.64,'1111122,1111122,1111122' 
COMPS,ioos:station:USF.COMPS:FHP:1,2016-08-01T07:30:00Z,28.1530,-82.8010,10.0,2.14,116.5,2.74,'1111122,1111122,1111122' 
COMPS,ioos:station:USF.COMPS:FHP:1,2016-08-01T07:36:00Z,28.1530,-82.8010,10.0,3.07,122.78,4.01,'1111122,1111122,1111122' 
COMPS,ioos:station:USF.COMPS:FHP:1,2016-08-01T07:42:00Z,28.1530,-82.8010,10.0,2.95,127.65,4.31,'1111122,1111122,1111122' 
COMPS,ioos:station:USF.COMPS:FHP:1,2016-08-01T07:48:00Z,28.1530,-82.8010,10.0,3.13,124.47,4.11,'1111122,1111122,1111122' 
COMPS,ioos:station:USF.COMPS:FHP:1,2016-08-01T07:54:00Z,28.1530,-82.8010,10.0,3.71,116.78,4.5,'1111122,1111122,1111122' 
COMPS,ioos:station:USF.COMPS:FHP:1,2016-08-01T08:00:00Z,28.1530,-82.8010,10.0,3.4,115.54,4.01,'1111122,1111122,1111122' 
COMPS,ioos:station:USF.COMPS:FHP:1,2016-08-01T08:06:00Z,28.1530,-82.8010,10.0,3.62,120.32,4.21,'1111122,1111122,1111122' 
COMPS,ioos:station:USF.COMPS:FHP:1,2016-08-01T08:12:00Z,28.1530,-82.8010,10.0,3.31,127.03,3.72,'1111122,1111122,1111122' 
COMPS,ioos:station:USF.COMPS:FHP:1,2016-08-01T08:18:00Z,28.1530,-82.8010,10.0,3.16,126.67,4.11,'1111122,1111122,1111122' 
COMPS,ioos:station:USF.COMPS:FHP:1,2016-08-01T08:24:00Z,28.1530,-82.8010,10.0,3.26,122.75,4.31,'1111122,1111122,1111122' 
COMPS,ioos:station:USF.COMPS:FHP:1,2016-08-01T08:30:00Z,28.1530,-82.8010,10.0,3.08,123.95,4.21,'1111122,1111122,1111122' 
COMPS,ioos:station:USF.COMPS:FHP:1,2016-08-01T08:36:00Z,28.1530,-82.8010,10.0,3.02,117.95,3.82,'1111122,1111122,1111122' 
COMPS,ioos:station:USF.COMPS:FHP:1,2016-08-01T08:42:00Z,28.1530,-82.8010,10.0,3.4,120.71,4.41,'1111122,1111122,1111122' 
COMPS,ioos:station:USF.COMPS:FHP:1,2016-08-01T08:48:00Z,28.1530,-82.8010,10.0,3.47,118.65,4.41,'1111122,1111122,1111122' 
COMPS,ioos:station:USF.COMPS:FHP:1,2016-08-01T08:54:00Z,28.1530,-82.8010,10.0,3.86,126.7,4.5,'1111122,1111122,1111122' 
COMPS,ioos:station:USF.COMPS:FHP:1,2016-08-01T09:00:00Z,28.1530,-82.8010,10.0,4.18,126.0,5.19,'1111122,1111122,1111122' 
COMPS,ioos:station:USF.COMPS:FHP:1,2016-08-01T09:06:00Z,28.1530,-82.8010,10.0,4.03,124.56,4.9,'1111122,1111122,1111122' 
COMPS,ioos:station:USF.COMPS:FHP:1,2016-08-01T09:12:00Z,28.1530,-82.8010,10.0,3.98,124.86,4.99,'1111122,1111122,1111122' 
COMPS,ioos:station:USF.COMPS:FHP:1,2016-08-01T09:18:00Z,28.1530,-82.8010,10.0,3.9,122.35,4.99,'1111122,1111122,1111122' 
COMPS,ioos:station:USF.COMPS:FHP:1,2016-08-01T09:24:00Z,28.1530,-82.8010,10.0,4.05,122.32,4.9,'1111122,1111122,1111122' 
COMPS,ioos:station:USF.COMPS:FHP:1,2016-08-01T09:30:00Z,28.1530,-82.8010,10.0,4.31,119.15,5.68,'1111122,1111122,1111122' 
COMPS,ioos:station:USF.COMPS:FHP:1,2016-08-01T09:36:00Z,28.1530,-82.8010,10.0,4.3,117.33,5.58,'1111122,1111122,1111122' 
COMPS,ioos:station:USF.COMPS:FHP:1,2016-08-01T09:42:00Z,28.1530,-82.8010,10.0,4.24,119.5,5.29,'1111122,1111122,1111122' 
COMPS,ioos:station:USF.COMPS:FHP:1,2016-08-01T09:48:00Z,28.1530,-82.8010,10.0,3.96,118.27,4.9,'1111122,1111122,1111122' 
COMPS,ioos:station:USF.COMPS:FHP:1,2016-08-01T09:54:00Z,28.1530,-82.8010,10.0,4.17,121.37,4.99,'1111122,1111122,1111122' 
COMPS,ioos:station:USF.COMPS:FHP:1,2016-08-01T10:00:00Z,28.1530,-82.8010,10.0,4.5,127.28,5.19,'1111122,1111122,1111122' 
COMPS,ioos:station:USF.COMPS:FHP:1,2016-08-01T10:06:00Z,28.1530,-82.8010,10.0,4.21,122.29,5.48,'1111122,1111122,1111122' 
COMPS,ioos:station:USF.COMPS:FHP:1,2016-08-01T10:12:00Z,28.1530,-82.8010,10.0,4.04,120.44,5.19,'1111122,1111122,1111122' 
COMPS,ioos:station:USF.COMPS:FHP:1,2016-08-01T10:18:00Z,28.1530,-82.8010,10.0,3.68,121.36,4.8,'1111122,1111122,1111122' 
COMPS,ioos:station:USF.COMPS:FHP:1,2016-08-01T10:24:00Z,28.1530,-82.8010,10.0,3.94,123.49,5.09,'1111122,1111122,1111122' 
COMPS,ioos:station:USF.COMPS:FHP:1,2016-08-01T10:30:00Z,28.1530,-82.8010,10.0,3.69,117.83,4.8,'1111122,1111122,1111122' 
COMPS,ioos:station:USF.COMPS:FHP:1,2016-08-01T10:36:00Z,28.1530,-82.8010,10.0,3.73,120.67,4.5,'1111122,1111122,1111122' 
COMPS,ioos:station:USF.COMPS:FHP:1,2016-08-01T10:42:00Z,28.1530,-82.8010,10.0,3.58,124.08,4.41,'1111122,1111122,1111122' 
COMPS,ioos:station:USF.COMPS:FHP:1,2016-08-01T10:48:00Z,28.1530,-82.8010,10.0,3.63,123.36,4.41,'1111122,1111122,1111122' 
COMPS,ioos:station:USF.COMPS:FHP:1,2016-08-01T10:54:00Z,28.1530,-82.8010,10.0,3.32,119.59,4.31,'1111122,1111122,1111122' 
COMPS,ioos:station:USF.COMPS:FHP:1,2016-08-01T11:00:00Z,28.1530,-82.8010,10.0,2.92,120.07,3.72,'1111122,1111122,1111122' 
COMPS,ioos:station:USF.COMPS:FHP:1,2016-08-01T11:06:00Z,28.1530,-82.8010,10.0,2.79,125.99,3.43,'1111122,1111122,1111122' 
COMPS,ioos:station:USF.COMPS:FHP:1,2016-08-01T11:12:00Z,28.1530,-82.8010,10.0,3.14,131.83,4.01,'1111122,1111122,1111122' 
COMPS,ioos:station:USF.COMPS:FHP:1,2016-08-01T11:18:00Z,28.1530,-82.8010,10.0,3.62,125.17,4.31,'1111122,1111122,1111122' 
COMPS,ioos:station:USF.COMPS:FHP:1,2016-08-01T11:24:00Z,28.1530,-82.8010,10.0,3.63,124.57,4.6,'1111122,1111122,1111122' 
COMPS,ioos:station:USF.COMPS:FHP:1,2016-08-01T11:30:00Z,28.1530,-82.8010,10.0,3.66,120.67,4.5,'1111122,1111122,1111122' 
COMPS,ioos:station:USF.COMPS:FHP:1,2016-08-01T11:36:00Z,28.1530,-82.8010,10.0,3.8,121.03,4.5,'1111122,1111122,1111122' 
COMPS,ioos:station:USF.COMPS:FHP:1,2016-08-01T11:42:00Z,28.1530,-82.8010,10.0,3.66,122.09,4.8,'1111122,1111122,1111122' 
COMPS,ioos:station:USF.COMPS:FHP:1,2016-08-01T11:48:00Z,28.1530,-82.8010,10.0,3.83,124.75,5.19,'1111122,1111122,1111122' 
COMPS,ioos:station:USF.COMPS:FHP:1,2016-08-01T11:54:00Z,28.1530,-82.8010,10.0,3.49,130.19,4.6,'1111122,1111122,1111122' 
COMPS,ioos:station:USF.COMPS:FHP:1,2016-08-01T12:00:00Z,28.1530,-82.8010,10.0,3.58,131.06,4.41,'1111122,1111122,1111122' 
COMPS,ioos:station:USF.COMPS:FHP:1,2016-08-01T12:06:00Z,28.1530,-82.8010,10.0,3.3,125.76,4.11,'1111122,1111122,1111122' 
COMPS,ioos:station:USF.COMPS:FHP:1,2016-08-01T12:12:00Z,28.1530,-82.8010,10.0,3.16,124.31,3.72,'1111122,1111122,1111122' 
COMPS,ioos:station:USF.COMPS:FHP:1,2016-08-01T12:18:00Z,28.1530,-82.8010,10.0,2.98,122.34,3.82,'1111122,1111122,1111122' 
COMPS,ioos:station:USF.COMPS:FHP:1,2016-08-01T12:24:00Z,28.1530,-82.8010,10.0,3.09,130.29,3.82,'1111122,1111122,1111122' 
COMPS,ioos:station:USF.COMPS:FHP:1,2016-08-01T12:30:00Z,28.1530,-82.8010,10.0,3.35,134.97,4.5,'1111122,1111122,1111122' 
COMPS,ioos:station:USF.COMPS:FHP:1,2016-08-01T12:36:00Z,28.1530,-82.8010,10.0,3.29,136.29,4.01,'1111122,1111122,1111122' 
COMPS,ioos:station:USF.COMPS:FHP:1,2016-08-01T12:42:00Z,28.1530,-82.8010,10.0,3.44,133.46,4.11,'1111122,1111122,1111122' 
COMPS,ioos:station:USF.COMPS:FHP:1,2016-08-01T12:48:00Z,28.1530,-82.8010,10.0,3.2,130.7,4.01,'1111122,1111122,1111122' 
COMPS,ioos:station:USF.COMPS:FHP:1,2016-08-01T12:54:00Z,28.1530,-82.8010,10.0,3.25,133.16,4.21,'1111122,1111122,1111122' 
COMPS,ioos:station:USF.COMPS:FHP:1,2016-08-01T13:00:00Z,28.1530,-82.8010,10.0,3.26,134.12,3.72,'1111122,1111122,1111122' 
COMPS,ioos:station:USF.COMPS:FHP:1,2016-08-01T13:06:00Z,28.1530,-82.8010,10.0,3.81,137.23,5.19,'1111122,1111122,1111122' 
COMPS,ioos:station:USF.COMPS:FHP:1,2016-08-01T13:12:00Z,28.1530,-82.8010,10.0,3.51,135.41,4.31,'1111122,1111122,1111122' 
COMPS,ioos:station:USF.COMPS:FHP:1,2016-08-01T13:18:00Z,28.1530,-82.8010,10.0,3.2,125.16,3.72,'1111122,1111122,1111122' 
COMPS,ioos:station:USF.COMPS:FHP:1,2016-08-01T13:24:00Z,28.1530,-82.8010,10.0,3.34,126.18,4.41,'1111122,1111122,1111122' 
COMPS,ioos:station:USF.COMPS:FHP:1,2016-08-01T13:30:00Z,28.1530,-82.8010,10.0,3.04,130.81,3.92,'1111122,1111122,1111122' 
COMPS,ioos:station:USF.COMPS:FHP:1,2016-08-01T13:36:00Z,28.1530,-82.8010,10.0,3.61,138.12,4.6,'1111122,1111122,1111122' 
COMPS,ioos:station:USF.COMPS:FHP:1,2016-08-01T13:42:00Z,28.1530,-82.8010,10.0,3.91,133.13,4.8,'1111122,1111122,1111122' 
COMPS,ioos:station:USF.COMPS:FHP:1,2016-08-01T13:48:00Z,28.1530,-82.8010,10.0,3.84,135.21,4.99,'1111122,1111122,1111122' 
COMPS,ioos:station:USF.COMPS:FHP:1,2016-08-01T13:54:00Z,28.1530,-82.8010,10.0,3.55,130.33,4.5,'1111122,1111122,1111122' 
COMPS,ioos:station:USF.COMPS:FHP:1,2016-08-01T14:00:00Z,28.1530,-82.8010,10.0,3.64,129.57,4.7,'1111122,1111122,1111122' 
COMPS,ioos:station:USF.COMPS:FHP:1,2016-08-01T14:06:00Z,28.1530,-82.8010,10.0,3.71,128.9,4.6,'1111122,1111122,1111122' 
COMPS,ioos:station:USF.COMPS:FHP:1,2016-08-01T14:12:00Z,28.1530,-82.8010,10.0,3.4,138.15,4.21,'1111122,1111122,1111122' 
COMPS,ioos:station:USF.COMPS:FHP:1,2016-08-01T14:18:00Z,28.1530,-82.8010,10.0,3.68,147.87,5.09,'1111122,1111122,1111122' 
COMPS,ioos:station:USF.COMPS:FHP:1,2016-08-01T14:24:00Z,28.1530,-82.8010,10.0,3.77,145.06,5.29,'1111122,1111122,1111122' 
COMPS,ioos:station:USF.COMPS:FHP:1,2016-08-01T14:30:00Z,28.1530,-82.8010,10.0,3.89,137.96,4.8,'1111122,1111122,1111122' 
COMPS,ioos:station:USF.COMPS:FHP:1,2016-08-01T14:36:00Z,28.1530,-82.8010,10.0,3.43,129.63,4.5,'1111122,1111122,1111122' 
COMPS,ioos:station:USF.COMPS:FHP:1,2016-08-01T14:42:00Z,28.1530,-82.8010,10.0,3.6,140.28,4.7,'1111122,1111122,1111122' 
COMPS,ioos:station:USF.COMPS:FHP:1,2016-08-01T14:48:00Z,28.1530,-82.8010,10.0,3.44,143.78,5.48,'1111122,1111122,1111122' 
COMPS,ioos:station:USF.COMPS:FHP:1,2016-08-01T14:54:00Z,28.1530,-82.8010,10.0,3.92,164.28,5.39,'1111122,1111122,1111122' 
COMPS,ioos:station:USF.COMPS:FHP:1,2016-08-01T15:00:00Z,28.1530,-82.8010,10.0,3.29,158.16,4.21,'1111122,1111122,1111122' 
COMPS,ioos:station:USF.COMPS:FHP:1,2016-08-01T15:06:00Z,28.1530,-82.8010,10.0,3.64,164.55,5.09,'1111122,1111122,1111122' 
COMPS,ioos:station:USF.COMPS:FHP:1,2016-08-01T15:12:00Z,28.1530,-82.8010,10.0,3.52,149.04,4.9,'1111122,1111122,1111122' 
COMPS,ioos:station:USF.COMPS:FHP:1,2016-08-01T15:18:00Z,28.1530,-82.8010,10.0,3.38,154.29,5.19,'1111122,1111122,1111122' 
COMPS,ioos:station:USF.COMPS:FHP:1,2016-08-01T15:24:00Z,28.1530,-82.8010,10.0,3.53,170.62,4.7,'1111122,1111122,1111122' 
COMPS,ioos:station:USF.COMPS:FHP:1,2016-08-01T15:30:00Z,28.1530,-82.8010,10.0,3.06,176.03,4.7,'1111122,1111122,1111122' 
COMPS,ioos:station:USF.COMPS:FHP:1,2016-08-01T15:36:00Z,28.1530,-82.8010,10.0,3.31,168.81,4.11,'1111122,1111122,1111122' 
COMPS,ioos:station:USF.COMPS:FHP:1,2016-08-01T15:42:00Z,28.1530,-82.8010,10.0,3.0,163.73,4.41,'1111122,1111122,1111122' 
COMPS,ioos:station:USF.COMPS:FHP:1,2016-08-01T15:48:00Z,28.1530,-82.8010,10.0,2.53,179.54,3.82,'1111122,1111122,1111122' 
COMPS,ioos:station:USF.COMPS:FHP:1,2016-08-01T15:54:00Z,28.1530,-82.8010,10.0,3.29,177.0,4.9,'1111122,1111122,1111122' 
COMPS,ioos:station:USF.COMPS:FHP:1,2016-08-01T16:00:00Z,28.1530,-82.8010,10.0,2.5,182.97,2.94,'1111122,1111122,1111122' 
COMPS,ioos:station:USF.COMPS:FHP:1,2016-08-01T16:06:00Z,28.1530,-82.8010,10.0,2.36,184.14,4.21,'1111122,1111122,1111122' 
COMPS,ioos:station:USF.COMPS:FHP:1,2016-08-01T16:12:00Z,28.1530,-82.8010,10.0,2.31,185.8,4.11,'1111122,1111122,1111122' 
COMPS,ioos:station:USF.COMPS:FHP:1,2016-08-01T16:18:00Z,28.1530,-82.8010,10.0,2.32,189.02,3.52,'1111122,1111122,1111122' 
COMPS,ioos:station:USF.COMPS:FHP:1,2016-08-01T16:24:00Z,28.1530,-82.8010,10.0,2.16,193.09,2.94,'1111122,1111122,1111122' 
COMPS,ioos:station:USF.COMPS:FHP:1,2016-08-01T16:30:00Z,28.1530,-82.8010,10.0,2.36,197.69,3.33,'1111122,1111122,1111122' 
COMPS,ioos:station:USF.COMPS:FHP:1,2016-08-01T16:36:00Z,28.1530,-82.8010,10.0,1.5,168.51,2.05,'1111122,1111122,1111122' 
COMPS,ioos:station:USF.COMPS:FHP:1,2016-08-01T16:42:00Z,28.1530,-82.8010,10.0,3.1,150.64,4.5,'1111122,1111122,1111122' 
COMPS,ioos:station:USF.COMPS:FHP:1,2016-08-01T16:48:00Z,28.1530,-82.8010,10.0,1.9,165.03,3.03,'1111122,1111122,1111122' 
COMPS,ioos:station:USF.COMPS:FHP:1,2016-08-01T16:54:00Z,28.1530,-82.8010,10.0,1.34,133.78,2.25,'1111122,1111122,1111122' 
COMPS,ioos:station:USF.COMPS:FHP:1,2016-08-01T17:00:00Z,28.1530,-82.8010,10.0,1.46,149.57,2.94,'1111122,1111122,1111122' 
COMPS,ioos:station:USF.COMPS:FHP:1,2016-08-01T17:06:00Z,28.1530,-82.8010,10.0,1.65,160.96,2.54,'1111122,1111122,1111122' 
COMPS,ioos:station:USF.COMPS:FHP:1,2016-08-01T17:12:00Z,28.1530,-82.8010,10.0,1.12,156.41,1.56,'1111122,1111122,1111122' 
COMPS,ioos:station:USF.COMPS:FHP:1,2016-08-01T17:18:00Z,28.1530,-82.8010,10.0,1.86,178.08,3.13,'1111122,1111122,1111122' 
COMPS,ioos:station:USF.COMPS:FHP:1,2016-08-01T17:24:00Z,28.1530,-82.8010,10.0,2.0,179.64,2.64,'1111122,1111122,1111122' 
COMPS,ioos:station:USF.COMPS:FHP:1,2016-08-01T17:30:00Z,28.1530,-82.8010,10.0,2.14,185.26,3.13,'1111122,1111122,1111122' 
COMPS,ioos:station:USF.COMPS:FHP:1,2016-08-01T17:36:00Z,28.1530,-82.8010,10.0,1.65,206.93,2.25,'1111122,1111122,1111122' 
COMPS,ioos:station:USF.COMPS:FHP:1,2016-08-01T17:42:00Z,28.1530,-82.8010,10.0,1.57,230.51,1.96,'1111122,1111122,1111122' 
COMPS,ioos:station:USF.COMPS:FHP:1,2016-08-01T17:48:00Z,28.1530,-82.8010,10.0,1.64,246.6,2.35,'1111122,1111122,1111122' 
COMPS,ioos:station:USF.COMPS:FHP:1,2016-08-01T17:54:00Z,28.1530,-82.8010,10.0,2.15,243.28,2.74,'1111122,1111122,1111122' 
COMPS,ioos:station:USF.COMPS:FHP:1,2016-08-01T18:00:00Z,28.1530,-82.8010,10.0,2.15,242.9,2.74,'1111122,1111122,1111122' 
COMPS,ioos:station:USF.COMPS:FHP:1,2016-08-01T18:06:00Z,28.1530,-82.8010,10.0,2.67,249.65,3.33,'1111122,1111122,1111122' 
COMPS,ioos:station:USF.COMPS:FHP:1,2016-08-01T18:12:00Z,28.1530,-82.8010,10.0,2.25,240.44,3.23,'1111122,1111122,1111122' 
COMPS,ioos:station:USF.COMPS:FHP:1,2016-08-01T18:18:00Z,28.1530,-82.8010,10.0,1.88,228.6,2.54,'1111122,1111122,1111122' 
COMPS,ioos:station:USF.COMPS:FHP:1,2016-08-01T18:24:00Z,28.1530,-82.8010,10.0,2.21,250.35,2.84,'1111122,1111122,1111122' 
COMPS,ioos:station:USF.COMPS:FHP:1,2016-08-01T18:30:00Z,28.1530,-82.8010,10.0,2.14,250.94,2.84,'1111122,1111122,1111122' 
COMPS,ioos:station:USF.COMPS:FHP:1,2016-08-01T18:36:00Z,28.1530,-82.8010,10.0,2.21,251.84,2.84,'1111122,1111122,1111122' 
COMPS,ioos:station:USF.COMPS:FHP:1,2016-08-01T18:42:00Z,28.1530,-82.8010,10.0,2.46,253.99,3.23,'1111122,1111122,1111122' 
COMPS,ioos:station:USF.COMPS:FHP:1,2016-08-01T18:48:00Z,28.1530,-82.8010,10.0,2.8,253.0,3.33,'1111122,1111122,1111122' 
COMPS,ioos:station:USF.COMPS:FHP:1,2016-08-01T18:54:00Z,28.1530,-82.8010,10.0,3.11,250.27,3.72,'1111122,1111122,1111122' 
COMPS,ioos:station:USF.COMPS:FHP:1,2016-08-01T19:00:00Z,28.1530,-82.8010,10.0,2.83,248.68,3.43,'1111122,1111122,1111122' 
COMPS,ioos:station:USF.COMPS:FHP:1,2016-08-01T19:06:00Z,28.1530,-82.8010,10.0,2.91,256.17,3.72,'1111122,1111122,1111122' 
COMPS,ioos:station:USF.COMPS:FHP:1,2016-08-01T19:12:00Z,28.1530,-82.8010,10.0,3.37,257.04,4.11,'1111122,1111122,1111122' 
COMPS,ioos:station:USF.COMPS:FHP:1,2016-08-01T19:18:00Z,28.1530,-82.8010,10.0,3.4,269.35,4.21,'1111122,1111122,1111122' 
COMPS,ioos:station:USF.COMPS:FHP:1,2016-08-01T19:24:00Z,28.1530,-82.8010,10.0,3.74,272.36,4.6,'1111122,1111122,1111122' 
COMPS,ioos:station:USF.COMPS:FHP:1,2016-08-01T19:30:00Z,28.1530,-82.8010,10.0,3.57,273.68,4.41,'1111122,1111122,1111122' 